Huvudsida
METAR-TAF:

METAR-TAF

Flygplatser :

Pajala Airport

Pajala, Sverige

latitud: 67-14-44N, longitud: 023-04-08E, höjd: 165 m

Aktuellt väderrapport

Denna rapport gjordes för 27 minuter sedan, klockan 12:20 UTC
Vind 8 kt från syd/sydväst
Temperatur 3°C
Fuktighet 65%
Tryck 990 hPa
Sikt 10 km eller mer

METAR: ESUP 221220Z AUTO 21008KT 9999 NCD 03/M03 Q0990

Tid: 14:47 (12:47 UTC)


TAF: saknas

Aktuella väderrapporter och prognoser från 4000 flygplatser (METAR- och TAF-rapporter).

De tillgängliga stationerna syns som gula och röda prickar på kartan.

För musen över prickarna för att se namnen på stationerna.

Klicka sedan för att få väderrapporter och prognoser.

För att ändra kartan: Klicka på de gröna knapparna med ett svart kors på för att zooma in; den gröna knappen med ett streck på för att zooma ut; eller på de gröna pilarna för angränsande kartor.


METAR-TAF: